Regional Weather Roundup
Issued by NWS State College, PA

Home | Current Version | Previous Version | Graphics & Text | Print | Product List | Glossary On
Versions: 1 2 3 4 5 6 7 8 9 10 11 12 13 14 15 16 17 18 19 20 21 22 23 24 25 26 27 28 29 30 31 32 33 34 35 36 37 38 39 40 41 42 43 44 45 46 47 48 49 50
000
ASUS41 KCTP 211910
RWRCTP

REGIONAL WEATHER ROUNDUP
NATIONAL WEATHER SERVICE STATE COLLEGE PA
200 PM EST SUN DEC 21 2014

Note: "fair" indicates few or no clouds below 12,000 feet with no
significant weather and/or obstructions to visibility.

* = STATION THAT DOES NOT REPORT PRECIPITATION /E.G. RAIN...SNOW...ETC/
    THUNDER OR FOG.

PAZ002>004-007>009-013>016-020>023-029>032-212000-
WESTERN PENNSYLVANIA

CITY           SKY/WX    TMP DP  RH WIND       PRES   REMARKS
ERIE           CLOUDY    33  23  66 S5        30.28F
MEADVILLE      CLOUDY    30  21  69 CALM      30.24F HAZE
FRANKLIN*      CLOUDY    28  19  69 CALM      30.25F
NEW CASTLE       N/A     31  21  66 CALM      30.27F
BEAVER COUNTY  CLOUDY    30  21  69 CALM      30.25F
BUTLER*        CLOUDY    30  21  69 CALM      30.27F
PITTSBURGH INT CLOUDY    32  21  64 CALM      30.25F
PITTSBURGH     CLOUDY    32  19  58 VRB3      30.24F
INDIANA*       CLOUDY    30  23  74 CALM      30.29F
LATROBE        CLOUDY    32  23  69 CALM      30.27F
WASHINGTON CO* NOT AVBL
$$

PAZ004>006-010>012-017>019-024>028-033>037-041-042-045-046-049>053-212000-
CENTRAL PENNSYLVANIA

CITY           SKY/WX    TMP DP  RH WIND       PRES   REMARKS
BRADFORD       CLOUDY    26  20  77 NW3       30.21S
DUBOIS         CLOUDY    28  20  71 N3        30.22F
CLEARFIELD     PTSUNNY   29  20  69 CALM      30.24F
JOHNSTOWN      PTSUNNY   30  21  69 NE6       30.18F
ALTOONA        MOSUNNY   32  21  64 N3        30.24F
STATE COLLEGE  CLOUDY    30  21  69 CALM      30.26S
WILLIAMSPORT   CLOUDY    35  19  52 CALM      30.29F
SELINSGROVE    CLOUDY    34  21  59 N6        30.31F
FT INDIANTOWN  CLOUDY    33  22  64 VRB3      30.30F
CAPITAL CITY   PTSUNNY   34  21  59 CALM      30.31F
HARRISBURG     PTSUNNY   34  21  59 NE6       30.30F
YORK           SUNNY     37  21  52 N6        30.29F
$$

PAZ038>040-043-044-047-048-054-055-060>062-067>071-212000-
EASTERN PENNSYLVANIA

CITY           SKY/WX    TMP DP  RH WIND       PRES   REMARKS
SCRANTON       CLOUDY    31  19  61 N7        30.27F
MOUNT POCONO   CLOUDY    27  20  75 NW9       30.21S
ALLENTOWN      CLOUDY    35  21  56 NW3       30.30S
QUAKERTOWN*    CLEAR     36  23  60 N7        30.29F
READING        CLOUDY    34  21  59 NE6       30.30F
LANCASTER      CLOUDY    33  22  63 NW5       30.30F
COATESVILLE    MOCLDY    36  25  64 NW10      30.29S
POTTSTOWN      MOSUNNY   34  21  59 NW6       30.31S
BLUE BELL      MOSUNNY   37  27  65 NW6       30.29S
DOYLESTOWN     CLOUDY    34  23  64 NW7       30.28F
WILLOW GROVE   NOT AVBL
NORTH PHILA    SUNNY     40  20  44 VRB5      30.31F
PHILADELPHIA   MOSUNNY   39  22  50 N9        30.31S
$$



USA.gov is the U.S. government's official web portal to all federal, state and local government web resources and services.